CZ-2C R/B (28222 NORAD) Tracking and Keplerian Element Data

This shows tracking and keplerian element data for the satellite.

Feedback or suggestion? Click here.




ElementValue
Catalog28222
NameCZ-2C R/B
Epoch Orbit78027
Epoch Day198.91193718
Epoch Year2018
RAAN154.4628
Inclination97.5773
Eccentricity0.0046105
Argument of Perigee269.2889
Mean Anonmoly124.7792
Mean Motion15.09764642
Decay Rate3.26E-06
L11 28222U 04012C 18198.91193718 .00000326 00000-0 23847-4 0 9998
L22 28222 97.5773 154.4628 0046105 269.2889 124.7792 15.09764642780276

Live tracking and technical data element details for CZ-2C R/B (NORAD 28222). CZ-2C R/B can be tracked NOW for your location showing map with azimuth and elevation plus other details from your city location.

Track the satellite on the map from your city or location and see movement details for azimuth, elevation, latitude, longitude, range, height, and movement on the map or in text.







IsCatalogInMostPopularTable: catalog: 28222, numindb: 24
Update: records affected: 1



GetName: 28222 CZ-2C R/B

Hit Count: updated at: Thu, 19 Jul 2018 03:44:51 GMT